TimeCST,TemperatureF,Dew PointF,Humidity,Sea Level PressureIn,VisibilityMPH,Wind Direction,Wind SpeedMPH,Gust SpeedMPH,PrecipitationIn,Events,Conditions,WindDirDegrees,DateUTC
12:17 AM,28.4,17.6,64,29.99,10.0,WSW,9.2,-,N/A,,Overcast,240,2013-02-23 06:17:00
12:36 AM,28.4,17.6,64,29.98,10.0,WSW,8.1,-,N/A,,Overcast,250,2013-02-23 06:36:00
1:18 AM,28.4,17.6,64,29.98,10.0,SW,8.1,-,N/A,,Overcast,230,2013-02-23 07:18:00
1:58 AM,26.6,17.6,69,29.99,10.0,WSW,9.2,-,N/A,,Overcast,240,2013-02-23 07:58:00
2:58 AM,26.6,17.6,69,29.98,10.0,WSW,8.1,-,N/A,,Overcast,250,2013-02-23 08:58:00
3:16 AM,26.6,15.8,64,29.98,10.0,West,8.1,-,N/A,,Overcast,260,2013-02-23 09:16:00
3:56 AM,26.6,15.8,64,29.98,10.0,West,6.9,-,N/A,,Overcast,260,2013-02-23 09:56:00
4:16 AM,26.6,15.8,64,29.98,10.0,West,5.8,-,N/A,,Overcast,270,2013-02-23 10:16:00
4:36 AM,26.6,15.8,64,29.98,10.0,West,6.9,-,N/A,,Overcast,260,2013-02-23 10:36:00
4:56 AM,26.6,15.8,64,29.98,10.0,WSW,4.6,-,N/A,,Overcast,250,2013-02-23 10:56:00
5:16 AM,26.6,15.8,64,29.98,10.0,SW,6.9,-,N/A,,Overcast,230,2013-02-23 11:16:00
5:36 AM,26.6,15.8,64,29.98,10.0,WSW,4.6,-,N/A,,Overcast,240,2013-02-23 11:36:00
5:56 AM,26.6,15.8,64,29.98,10.0,West,6.9,-,N/A,,Overcast,270,2013-02-23 11:56:00
6:16 AM,26.6,15.8,64,29.98,10.0,West,6.9,-,N/A,,Overcast,260,2013-02-23 12:16:00
7:16 AM,26.6,15.8,64,30.00,10.0,West,4.6,-,N/A,,Overcast,260,2013-02-23 13:16:00
7:36 AM,26.6,15.8,64,30.00,10.0,WNW,8.1,-,N/A,,Overcast,290,2013-02-23 13:36:00
7:58 AM,26.6,15.8,64,30.00,10.0,West,4.6,-,N/A,,Overcast,270,2013-02-23 13:58:00
8:16 AM,26.6,15.8,64,30.00,10.0,West,3.5,-,N/A,,Overcast,270,2013-02-23 14:16:00
8:58 AM,28.4,15.8,59,30.00,10.0,WSW,8.1,-,N/A,,Overcast,250,2013-02-23 14:58:00
9:58 AM,28.4,15.8,59,29.99,10.0,WSW,6.9,-,N/A,,Scattered Clouds,240,2013-02-23 15:58:00
11:16 AM,30.2,15.8,55,29.98,10.0,WSW,9.2,-,N/A,,Clear,240,2013-02-23 17:16:00
11:36 AM,32.0,15.8,51,29.99,10.0,WSW,8.1,-,N/A,,Clear,250,2013-02-23 17:36:00
11:56 AM,32.0,15.8,51,29.98,10.0,WSW,6.9,-,N/A,,Clear,240,2013-02-23 17:56:00
12:16 PM,33.8,15.8,48,29.97,10.0,WSW,6.9,-,N/A,,Clear,250,2013-02-23 18:16:00
12:36 PM,33.8,15.8,48,29.97,10.0,SW,3.5,-,N/A,,Clear,220,2013-02-23 18:36:00
12:56 PM,33.8,15.8,48,29.97,10.0,WSW,9.2,-,N/A,,Clear,250,2013-02-23 18:56:00
1:16 PM,35.6,15.8,44,29.96,10.0,SSW,5.8,-,N/A,,Clear,200,2013-02-23 19:16:00
1:36 PM,35.6,15.8,44,29.95,10.0,SSW,5.8,-,N/A,,Clear,210,2013-02-23 19:36:00
1:56 PM,35.6,15.8,44,29.96,10.0,SW,5.8,-,N/A,,Clear,220,2013-02-23 19:56:00
2:56 PM,35.6,17.6,48,29.95,10.0,SW,8.1,-,N/A,,Clear,230,2013-02-23 20:56:00
3:16 PM,35.6,17.6,48,29.95,10.0,SW,6.9,-,N/A,,Clear,220,2013-02-23 21:16:00
3:38 PM,35.6,17.6,48,29.95,10.0,SSW,8.1,-,N/A,,Clear,210,2013-02-23 21:38:00
3:56 PM,35.6,15.8,44,29.95,10.0,SW,11.5,-,N/A,,Clear,220,2013-02-23 21:56:00
4:18 PM,35.6,17.6,48,29.95,10.0,SW,11.5,-,N/A,,Clear,220,2013-02-23 22:18:00
4:36 PM,35.6,15.8,44,29.95,10.0,SW,9.2,-,N/A,,Clear,220,2013-02-23 22:36:00
4:56 PM,35.6,15.8,44,29.95,10.0,SW,10.4,-,N/A,,Clear,220,2013-02-23 22:56:00
5:16 PM,33.8,17.6,52,29.95,10.0,SSW,9.2,-,N/A,,Clear,210,2013-02-23 23:16:00
5:37 PM,33.8,17.6,52,29.96,10.0,NW,8.1,-,N/A,,Clear,320,2013-02-23 23:37:00
5:56 PM,32.0,17.6,55,29.96,10.0,ENE,5.8,-,N/A,,Clear,70,2013-02-23 23:56:00
6:36 PM,30.2,17.6,60,29.96,10.0,SSW,5.8,-,N/A,,Clear,200,2013-02-24 00:36:00
6:56 PM,28.4,15.8,59,29.97,10.0,SSW,8.1,-,N/A,,Clear,210,2013-02-24 00:56:00
7:18 PM,28.4,15.8,59,29.97,10.0,SSW,6.9,-,N/A,,Clear,200,2013-02-24 01:18:00
7:58 PM,28.4,15.8,59,29.97,10.0,South,5.8,-,N/A,,Clear,180,2013-02-24 01:58:00
8:16 PM,28.4,15.8,59,29.98,10.0,South,5.8,-,N/A,,Clear,180,2013-02-24 02:16:00
8:57 PM,26.6,15.8,64,29.97,10.0,South,6.9,-,N/A,,Clear,180,2013-02-24 02:57:00
9:16 PM,24.8,14.0,64,29.98,10.0,South,8.1,-,N/A,,Clear,190,2013-02-24 03:16:00
9:36 PM,26.6,15.8,64,29.98,10.0,South,8.1,-,N/A,,Clear,190,2013-02-24 03:36:00
9:56 PM,26.6,14.0,59,29.98,10.0,South,6.9,-,N/A,,Clear,190,2013-02-24 03:56:00
10:16 PM,24.8,14.0,64,29.98,10.0,South,6.9,-,N/A,,Clear,190,2013-02-24 04:16:00
10:36 PM,24.8,14.0,64,29.97,10.0,South,5.8,-,N/A,,Clear,190,2013-02-24 04:36:00
11:16 PM,21.2,12.2,68,29.98,10.0,SW,4.6,-,N/A,,Clear,230,2013-02-24 05:16:00
11:38 PM,23.0,14.0,68,29.99,10.0,SSW,5.8,-,N/A,,Clear,210,2013-02-24 05:38:00